Time,TemperatureF,DewpointF,PressureIn,WindDirection,WindDirectionDegrees,WindSpeedMPH,WindSpeedGustMPH,Humidity,HourlyPrecipIn,Conditions,Clouds,dailyrainin,SoftwareType,DateUTC
2013-06-03 00:09:00,47.5,41.0,29.99,East,88,1.0,6.0,79,0.00,,,0.00,weatherlink.com 1.10,2013-06-03 09:09:00,
2013-06-03 00:24:00,47.4,41.0,29.98,East,84,2.0,4.0,79,0.00,,,0.00,weatherlink.com 1.10,2013-06-03 09:24:00,
2013-06-03 00:39:00,47.3,41.0,29.98,ENE,71,3.0,4.0,79,0.00,,,0.00,weatherlink.com 1.10,2013-06-03 09:39:00,
2013-06-03 00:54:00,47.2,41.0,29.97,ENE,71,1.0,2.0,80,0.00,,,0.00,weatherlink.com 1.10,2013-06-03 09:54:00,
2013-06-03 01:09:00,47.1,41.0,29.97,ENE,71,1.0,3.0,80,0.00,,,0.00,weatherlink.com 1.10,2013-06-03 10:09:00,
2013-06-03 01:24:00,46.9,41.0,29.96,ESE,103,1.0,5.0,80,0.00,,,0.00,weatherlink.com 1.10,2013-06-03 10:24:00,
2013-06-03 01:39:00,46.6,41.0,29.96,ESE,103,0.0,1.0,81,0.00,,,0.00,weatherlink.com 1.10,2013-06-03 10:39:00,
2013-06-03 01:54:00,46.3,41.0,29.96,ESE,103,0.0,1.0,81,0.00,,,0.00,weatherlink.com 1.10,2013-06-03 10:54:00,
2013-06-03 02:09:00,46.1,41.0,29.95,ESE,103,1.0,2.0,82,0.00,,,0.00,weatherlink.com 1.10,2013-06-03 11:09:00,
2013-06-03 02:24:00,46.1,41.0,29.95,ESE,103,2.0,4.0,82,0.00,,,0.00,weatherlink.com 1.10,2013-06-03 11:24:00,
2013-06-03 02:39:00,46.2,41.0,29.95,ESE,103,0.0,2.0,82,0.00,,,0.00,weatherlink.com 1.10,2013-06-03 11:39:00,
2013-06-03 02:54:00,45.8,41.0,29.94,East,94,1.0,3.0,83,0.00,,,0.00,weatherlink.com 1.10,2013-06-03 11:54:00,
2013-06-03 03:09:00,45.4,41.0,29.94,East,93,1.0,5.0,84,0.00,,,0.00,weatherlink.com 1.10,2013-06-03 12:09:00,
2013-06-03 03:24:00,45.7,41.0,29.94,ESE,111,1.0,6.0,83,0.00,,,0.00,weatherlink.com 1.10,2013-06-03 12:24:00,
2013-06-03 03:39:00,46.3,40.0,29.93,SE,146,5.0,8.0,80,0.00,,,0.00,weatherlink.com 1.10,2013-06-03 12:39:00,
2013-06-03 03:54:00,46.5,41.0,29.93,ESE,108,2.0,8.0,80,0.00,,,0.00,weatherlink.com 1.10,2013-06-03 12:54:00,
2013-06-03 04:09:00,46.4,41.0,29.92,ESE,115,4.0,9.0,80,0.00,,,0.00,weatherlink.com 1.10,2013-06-03 13:09:00,
2013-06-03 04:24:00,46.1,40.0,29.92,ESE,106,4.0,9.0,80,0.00,,,0.00,weatherlink.com 1.10,2013-06-03 13:24:00,
2013-06-03 04:39:00,46.0,41.0,29.91,ENE,69,6.0,8.0,81,0.00,,,0.00,weatherlink.com 1.10,2013-06-03 13:39:00,
2013-06-03 04:54:00,46.0,41.0,29.91,ENE,62,1.0,7.0,81,0.00,,,0.00,weatherlink.com 1.10,2013-06-03 13:54:00,
2013-06-03 05:09:00,45.9,40.0,29.91,NE,47,2.0,7.0,81,0.00,,,0.00,weatherlink.com 1.10,2013-06-03 14:09:00,
2013-06-03 05:24:00,45.9,40.0,29.90,East,99,1.0,6.0,81,0.00,,,0.00,weatherlink.com 1.10,2013-06-03 14:24:00,
2013-06-03 05:39:00,46.0,41.0,29.90,East,82,0.0,7.0,81,0.00,,,0.00,weatherlink.com 1.10,2013-06-03 14:39:00,
2013-06-03 05:54:00,46.0,41.0,29.89,East,85,2.0,4.0,81,0.00,,,0.00,weatherlink.com 1.10,2013-06-03 14:54:00,
2013-06-03 06:09:00,45.9,40.0,29.89,ESE,114,0.0,5.0,81,0.00,,,0.00,weatherlink.com 1.10,2013-06-03 15:09:00,
2013-06-03 06:24:00,45.8,40.0,29.89,ESE,114,0.0,4.0,81,0.00,,,0.00,weatherlink.com 1.10,2013-06-03 15:24:00,
2013-06-03 06:39:00,45.7,41.0,29.89,ESE,114,0.0,0.0,82,0.00,,,0.00,weatherlink.com 1.10,2013-06-03 15:39:00,
2013-06-03 06:54:00,45.8,41.0,29.89,ESE,114,0.0,1.0,84,0.00,,,0.00,weatherlink.com 1.10,2013-06-03 15:54:00,
2013-06-03 07:09:00,45.4,41.0,29.88,ESE,114,0.0,1.0,85,0.00,,,0.00,weatherlink.com 1.10,2013-06-03 16:09:00,
2013-06-03 07:25:00,45.1,41.0,29.88,ESE,114,0.0,0.0,86,0.00,,,0.00,weatherlink.com 1.10,2013-06-03 16:25:00,
2013-06-03 07:40:00,44.6,41.0,29.88,ESE,114,0.0,2.0,88,0.00,,,0.00,weatherlink.com 1.10,2013-06-03 16:40:00,
2013-06-03 07:55:00,44.4,42.0,29.87,ESE,114,0.0,4.0,90,0.00,,,0.00,weatherlink.com 1.10,2013-06-03 16:55:00,
2013-06-03 08:10:00,44.3,42.0,29.87,ESE,114,0.0,1.0,90,0.00,,,0.00,weatherlink.com 1.10,2013-06-03 17:10:00,
2013-06-03 08:25:00,44.3,42.0,29.86,ESE,114,0.0,0.0,90,0.00,,,0.00,weatherlink.com 1.10,2013-06-03 17:25:00,
2013-06-03 08:40:00,44.4,41.0,29.86,ESE,114,0.0,1.0,89,0.00,,,0.00,weatherlink.com 1.10,2013-06-03 17:40:00,
2013-06-03 08:55:00,44.6,42.0,29.86,ESE,114,0.0,1.0,89,0.00,,,0.00,weatherlink.com 1.10,2013-06-03 17:55:00,
2013-06-03 09:10:00,44.8,42.0,29.85,ESE,114,0.0,1.0,90,0.00,,,0.00,weatherlink.com 1.10,2013-06-03 18:10:00,
2013-06-03 09:25:00,44.7,42.0,29.85,ESE,114,0.0,2.0,89,0.00,,,0.00,weatherlink.com 1.10,2013-06-03 18:25:00,
2013-06-03 09:40:00,44.7,42.0,29.84,SSE,159,1.0,3.0,89,0.00,,,0.00,weatherlink.com 1.10,2013-06-03 18:40:00,
2013-06-03 09:55:00,45.1,42.0,29.84,SSE,159,0.0,0.0,90,0.00,,,0.00,weatherlink.com 1.10,2013-06-03 18:55:00,
2013-06-03 10:10:00,45.4,42.0,29.83,SSE,159,0.0,2.0,89,0.00,,,0.00,weatherlink.com 1.10,2013-06-03 19:10:00,
2013-06-03 10:25:00,45.7,42.0,29.83,North,350,6.0,8.0,87,0.00,,,0.00,weatherlink.com 1.10,2013-06-03 19:25:00,
2013-06-03 10:40:00,46.1,43.0,29.82,NNW,345,5.0,9.0,87,0.00,,,0.00,weatherlink.com 1.10,2013-06-03 19:40:00,
2013-06-03 10:55:00,46.2,43.0,29.82,NE,35,1.0,4.0,87,0.00,,,0.00,weatherlink.com 1.10,2013-06-03 19:55:00,
2013-06-03 11:10:00,46.1,43.0,29.82,SE,133,2.0,4.0,87,0.00,,,0.00,weatherlink.com 1.10,2013-06-03 20:10:00,
2013-06-03 11:26:00,46.6,43.0,29.81,SE,133,0.0,1.0,87,0.00,,,0.00,weatherlink.com 1.10,2013-06-03 20:26:00,
2013-06-03 11:41:00,47.0,43.0,29.81,SE,133,0.0,2.0,86,0.00,,,0.00,weatherlink.com 1.10,2013-06-03 20:41:00,
2013-06-03 11:56:00,47.6,43.0,29.81,NNW,330,5.0,9.0,84,0.00,,,0.00,weatherlink.com 1.10,2013-06-03 20:56:00,
2013-06-03 12:11:00,47.8,43.0,29.80,NW,325,5.0,9.0,84,0.00,,,0.00,weatherlink.com 1.10,2013-06-03 21:11:00,
2013-06-03 12:26:00,48.1,43.0,29.80,WNW,283,3.0,7.0,83,0.00,,,0.00,weatherlink.com 1.10,2013-06-03 21:26:00,
2013-06-03 12:56:00,48.4,42.0,29.79,West,275,4.0,9.0,79,0.00,,,0.00,weatherlink.com 1.10,2013-06-03 21:56:00,
2013-06-03 13:26:00,49.9,42.0,29.78,West,280,2.0,8.0,74,0.00,,,0.00,weatherlink.com 1.10,2013-06-03 22:26:00,
2013-06-03 13:41:00,50.3,42.0,29.78,NW,306,2.0,6.0,74,0.00,,,0.00,weatherlink.com 1.10,2013-06-03 22:41:00,
2013-06-03 13:56:00,51.2,42.0,29.78,NNE,14,0.0,5.0,72,0.00,,,0.00,weatherlink.com 1.10,2013-06-03 22:56:00,
2013-06-03 14:11:00,51.7,41.0,29.77,NW,319,2.0,8.0,66,0.00,,,0.00,weatherlink.com 1.10,2013-06-03 23:11:00,
2013-06-03 14:26:00,52.1,41.0,29.77,NE,53,5.0,6.0,65,0.00,,,0.00,weatherlink.com 1.10,2013-06-03 23:26:00,
2013-06-03 14:41:00,52.3,40.0,29.77,NE,42,2.0,9.0,63,0.00,,,0.00,weatherlink.com 1.10,2013-06-03 23:41:00,
2013-06-03 14:57:00,52.4,40.0,29.76,NE,34,0.0,6.0,63,0.00,,,0.00,weatherlink.com 1.10,2013-06-03 23:57:00,
2013-06-03 15:12:00,51.9,40.0,29.76,NE,56,2.0,5.0,65,0.00,,,0.00,weatherlink.com 1.10,2013-06-04 00:12:00,
2013-06-03 15:27:00,52.1,39.0,29.76,NE,41,6.0,7.0,62,0.00,,,0.00,weatherlink.com 1.10,2013-06-04 00:27:00,
2013-06-03 15:57:00,52.7,39.0,29.75,NE,55,2.0,10.0,60,0.00,,,0.00,weatherlink.com 1.10,2013-06-04 00:57:00,
2013-06-03 16:12:00,52.8,39.0,29.74,NE,53,2.0,10.0,61,0.00,,,0.00,weatherlink.com 1.10,2013-06-04 01:12:00,
2013-06-03 16:27:00,52.9,40.0,29.74,ENE,65,4.0,9.0,61,0.00,,,0.00,weatherlink.com 1.10,2013-06-04 01:27:00,
2013-06-03 16:42:00,52.7,39.0,29.73,NE,48,5.0,8.0,60,0.00,,,0.00,weatherlink.com 1.10,2013-06-04 01:42:00,
2013-06-03 16:57:00,52.5,39.0,29.73,NE,54,5.0,10.0,60,0.00,,,0.00,weatherlink.com 1.10,2013-06-04 01:57:00,
2013-06-03 17:12:00,52.6,39.0,29.73,NE,56,4.0,7.0,60,0.00,,,0.00,weatherlink.com 1.10,2013-06-04 02:12:00,
2013-06-03 17:27:00,52.4,40.0,29.73,ESE,103,0.0,8.0,62,0.00,,,0.00,weatherlink.com 1.10,2013-06-04 02:27:00,
2013-06-03 17:42:00,51.7,41.0,29.72,ENE,75,5.0,5.0,67,0.00,,,0.00,weatherlink.com 1.10,2013-06-04 02:42:00,
2013-06-03 17:57:00,51.1,41.0,29.72,East,86,1.0,5.0,68,0.00,,,0.00,weatherlink.com 1.10,2013-06-04 02:57:00,
2013-06-03 18:12:00,50.9,41.0,29.72,NE,44,4.0,6.0,70,0.00,,,0.00,weatherlink.com 1.10,2013-06-04 03:12:00,
2013-06-03 18:27:00,50.9,40.0,29.71,ENE,59,2.0,9.0,67,0.00,,,0.00,weatherlink.com 1.10,2013-06-04 03:27:00,
2013-06-03 18:42:00,51.1,40.0,29.71,NE,53,0.0,10.0,66,0.00,,,0.00,weatherlink.com 1.10,2013-06-04 03:42:00,
2013-06-03 18:57:00,51.3,40.0,29.71,ESE,116,6.0,8.0,66,0.00,,,0.00,weatherlink.com 1.10,2013-06-04 03:57:00,
2013-06-03 19:12:00,51.1,40.0,29.71,ESE,119,1.0,7.0,67,0.00,,,0.00,weatherlink.com 1.10,2013-06-04 04:12:00,
2013-06-03 19:27:00,51.0,40.0,29.70,East,86,2.0,8.0,66,0.00,,,0.00,weatherlink.com 1.10,2013-06-04 04:27:00,
2013-06-03 19:42:00,51.0,40.0,29.70,NE,53,1.0,7.0,66,0.00,,,0.00,weatherlink.com 1.10,2013-06-04 04:42:00,
2013-06-03 19:57:00,50.2,41.0,29.70,NNW,336,6.0,7.0,71,0.00,,,0.00,weatherlink.com 1.10,2013-06-04 04:57:00,
2013-06-03 20:12:00,47.7,41.0,29.70,NNW,335,5.0,9.0,78,0.00,,,0.00,weatherlink.com 1.10,2013-06-04 05:12:00,
2013-06-03 20:27:00,48.0,42.0,29.70,NW,314,1.0,5.0,79,0.00,,,0.00,weatherlink.com 1.10,2013-06-04 05:27:00,
2013-06-03 20:42:00,48.3,42.0,29.70,NNW,339,2.0,4.0,79,0.00,,,0.00,weatherlink.com 1.10,2013-06-04 05:42:00,
2013-06-03 20:57:00,48.3,42.0,29.69,North,10,2.0,4.0,79,0.00,,,0.00,weatherlink.com 1.10,2013-06-04 05:57:00,
2013-06-03 21:12:00,47.6,41.0,29.69,WNW,292,0.0,5.0,79,0.00,,,0.00,weatherlink.com 1.10,2013-06-04 06:12:00,
2013-06-03 21:27:00,47.3,41.0,29.69,WNW,292,0.0,1.0,80,0.00,,,0.00,weatherlink.com 1.10,2013-06-04 06:27:00,
2013-06-03 21:42:00,47.4,42.0,29.69,WNW,292,0.0,1.0,81,0.00,,,0.00,weatherlink.com 1.10,2013-06-04 06:42:00,
2013-06-03 21:57:00,47.4,42.0,29.69,WNW,292,0.0,0.0,82,0.00,,,0.00,weatherlink.com 1.10,2013-06-04 06:57:00,
2013-06-03 22:12:00,47.0,42.0,29.68,WNW,292,0.0,1.0,83,0.00,,,0.00,weatherlink.com 1.10,2013-06-04 07:12:00,
2013-06-03 22:27:00,46.7,43.0,29.68,WNW,292,0.0,2.0,85,0.00,,,0.00,weatherlink.com 1.10,2013-06-04 07:27:00,
2013-06-03 22:42:00,46.1,43.0,29.68,WNW,292,0.0,1.0,87,0.00,,,0.00,weatherlink.com 1.10,2013-06-04 07:42:00,
2013-06-03 22:57:00,45.8,42.0,29.68,WNW,285,0.0,4.0,87,0.00,,,0.00,weatherlink.com 1.10,2013-06-04 07:57:00,
2013-06-03 23:12:00,45.5,43.0,29.67,South,175,4.0,5.0,89,0.00,,,0.00,weatherlink.com 1.10,2013-06-04 08:12:00,
2013-06-03 23:28:00,44.8,42.0,29.67,SSE,162,4.0,6.0,90,0.00,,,0.00,weatherlink.com 1.10,2013-06-04 08:28:00,
2013-06-03 23:43:00,44.9,43.0,29.67,SSE,162,0.0,4.0,91,0.00,,,0.00,weatherlink.com 1.10,2013-06-04 08:43:00,
2013-06-03 23:58:00,45.0,43.0,29.67,SSE,162,0.0,2.0,91,0.00,,,0.00,weatherlink.com 1.10,2013-06-04 08:58:00,